Weather History for Annapolis Naval Academy, MD

Change the Weather History Date:

Saturday, March 1, 2014

  Actual Average (KBWI) Record (KBWI)
Temperature  
Mean Temperature 30 °F 39 °F  
Max Temperature 36 °F 49 °F 80 °F (1972)
Min Temperature 24 °F 29 °F 11 °F (1980)
Degree Days  
Heating Degree Days 35 26  
Month to date heating degree days 26  
Since 1 July heating degree days 3621  
Cooling Degree Days 0 0  
Month to date cooling degree days 0  
Year to date cooling degree days 0  
Moisture  
Dew Point 17 °F    
Average Humidity 56    
Maximum Humidity 76    
Minimum Humidity 40    
Precipitation  
Precipitation 0.00 in 0.11 in 1.17 in (1954)
Month to date precipitation 0.11  
Year to date precipitation 6.06  
Snow  
Snow 0.00 in 0.10 in 6.00 in (1952)
Month to date snowfall 0.1  
Since 1 July snowfall 18.3  
Snow Depth -    
Sea Level Pressure  
Sea Level Pressure 30.31 in    
Wind  
Wind Speed 8 mph (SE)    
Max Wind Speed 13 mph    
Max Gust Speed -    
Visibility 10 miles    
Events      
T = Trace of Precipitation, MM = Missing Value Source: NWS Daily Summary

Daily Weather History Graph

Daily Weather History Graph

Search for Another Location

Airport:

Trip Planner

Search our weather history database for the weather conditions in past years. The results will help you decide how hot, cold, wet, or windy it might be!

Date:

Astronomy

Mar. 01, 2014 Rise Set
Actual Time 6:38 AM EST 5:58 PM EST
Civil Twilight 6:11 AM EST 6:25 PM EST
Nautical Twilight 5:40 AM EST 6:56 PM EST
Astronomical Twilight 5:09 AM EST 7:27 PM EST
Moon 6:31 AM EST (3/1) 6:42 PM EST (3/1)
Length of Visible Light 12h 13m
Length of Day
11h 20m
New Moon, 0% of the Moon is Illuminated
Mar 1
New Moon
Mar 8
First Quarter
Mar 16
Full
Mar 23
Last Quarter
Mar 30
New

Hourly Weather History & Observations

Time (EST) Temp. Windchill Dew Point Humidity Pressure Visibility Wind Dir Wind Speed Gust Speed Precip Events Conditions
12:54 AM 24.1 °F 13.7 °F 7.0 °F 48% 30.42 in 10.0 mi SE 10.4 mph - N/A   Clear
1:54 AM 24.1 °F 13.7 °F 6.1 °F 46% 30.40 in 10.0 mi SE 10.4 mph - N/A   Clear
2:54 AM 25.0 °F 14.8 °F 7.0 °F 46% 30.38 in 10.0 mi SE 10.4 mph - N/A   Clear
3:54 AM 25.0 °F 16.3 °F 6.1 °F 45% 30.38 in 10.0 mi SSE 8.1 mph - N/A   Clear
4:54 AM 25.0 °F 18.1 °F 6.1 °F 45% 30.38 in 10.0 mi SE 5.8 mph - N/A   Clear
5:54 AM 24.1 °F 19.7 °F 9.0 °F 53% 30.38 in 10.0 mi South 3.5 mph - N/A   Clear
6:54 AM 25.0 °F 19.3 °F 15.1 °F 66% 30.39 in 10.0 mi East 4.6 mph - N/A   Clear
7:54 AM 27.0 °F 20.5 °F 12.0 °F 53% 30.41 in 10.0 mi SSE 5.8 mph - N/A   Clear
8:54 AM 28.0 °F 19.3 °F 15.1 °F 58% 30.40 in 10.0 mi ESE 9.2 mph - N/A   Clear
9:54 AM 28.9 °F 20.4 °F 17.1 °F 61% 30.39 in 10.0 mi ESE 9.2 mph - N/A   Clear
10:54 AM 32.0 °F 23.6 °F 10.0 °F 40% 30.38 in 10.0 mi SE 10.4 mph - N/A   Clear
11:54 AM 32.0 °F 22.5 °F 17.1 °F 54% 30.36 in 10.0 mi SE 12.7 mph - N/A   Scattered Clouds
12:54 PM 32.0 °F 22.5 °F 18.0 °F 56% 30.31 in 10.0 mi ESE 12.7 mph - N/A   Clear
1:54 PM 34.0 °F 25.0 °F 19.9 °F 56% 30.27 in 10.0 mi SE 12.7 mph - N/A   Partly Cloudy
2:54 PM 34.0 °F 26.0 °F 21.0 °F 59% 30.26 in 10.0 mi ESE 10.4 mph - N/A   Clear
3:54 PM 35.1 °F 27.9 °F 19.9 °F 54% 30.24 in 10.0 mi SE 9.2 mph - N/A   Overcast
4:54 PM 36.0 °F 30.3 °F 19.0 °F 50% 30.23 in 10.0 mi SE 6.9 mph - N/A   Overcast
5:54 PM 36.0 °F 32.1 °F 21.0 °F 55% 30.23 in 10.0 mi SE 4.6 mph - N/A   Overcast
6:54 PM 36.0 °F - 25.0 °F 64% 30.22 in 10.0 mi Calm Calm - N/A   Overcast
7:54 PM 36.0 °F - 25.0 °F 64% 30.25 in 10.0 mi Calm Calm - N/A   Overcast
8:54 PM 36.0 °F - 25.0 °F 64% 30.24 in 10.0 mi Calm Calm - N/A   Overcast
9:54 PM 36.0 °F 32.1 °F 28.9 °F 76% 30.21 in 10.0 mi SSE 4.6 mph - N/A   Overcast
10:54 PM 36.0 °F - 25.0 °F 64% 30.20 in 10.0 mi Calm Calm - N/A   Partly Cloudy
11:54 PM 36.0 °F 33.3 °F 28.0 °F 73% 30.19 in 10.0 mi South 3.5 mph - N/A   Overcast